CW9244 Weather Reports


Display with metric or nautical units.
time (UTC)temp
F
wind
direction
speed
MPH
gust
MPH
rain 1hr
in
rain 24hr
in
rain mn
in
humidity
%
barometer
mb
20260502162524 55 90 0.0 0.0 0.00 0.00 0.00 66 1027.6
20260502161527 54 337 1.0 1.0 0.00 0.00 0.00 66 1027.7
20260502151722 53 337 0.0 1.0 0.00 0.00 0.00 72 1028.1
20260502150722 52 337 0.0 1.0 0.00 0.00 0.00 75 1028.2
20260502130725 52 337 0.0 0.0 0.00 0.00 0.00 84 1028.2
20260502123726 51 270 0.0 0.0 0.00 0.00 0.00 85 1028.1
20260502120926 51 202 0.0 0.0 0.00 0.00 0.00 86 1028.2
20260502115026 51 202 0.0 0.0 0.00 0.00 0.00 85 1027.9
20260502114024 50 202 0.0 0.0 0.00 0.00 0.00 85 1027.7
20260502113025 50 202 0.0 0.0 0.00 0.00 0.00 84 1027.5
20260502112023 50 202 0.0 0.0 0.00 0.00 0.00 83 1028.0
20260502110026 50 292 0.0 1.0 0.00 0.00 0.00 83 1028.5
20260502105122 50 315 1.0 3.0 0.00 0.00 0.00 83 1028.1
20260502103223 50 225 0.0 0.0 0.00 0.00 0.00 84 1027.8
20260502102225 50 225 0.0 0.0 0.00 0.00 0.00 84 1027.9
20260502101224 50 225 0.0 1.0 0.00 0.00 0.00 85 1027.8
20260502100224 50 225 0.0 0.0 0.00 0.00 0.00 85 1027.6
20260502091323 50 135 0.0 0.0 0.00 0.00 0.00 84 1027.6
20260502090324 50 67 0.0 0.0 0.00 0.00 0.00 84 1027.6
20260502070623 49 202 0.0 1.0 0.00 0.00 0.00 82 1027.7
20260502065625 49 202 0.0 1.0 0.00 0.00 0.00 81 1027.7
20260502064625 49 202 0.0 1.0 0.00 0.00 0.00 81 1027.8
20260502063624 49 202 0.0 2.0 0.00 0.00 0.00 80 1027.8
20260502062624 50 315 0.0 0.0 0.00 0.00 0.00 80 1027.9
20260502061624 50 202 1.0 2.0 0.00 0.00 0.00 79 1028.2
20260502060624 50 180 0.0 1.0 0.00 0.00 0.00 78 1027.9
20260502055624 50 180 1.0 2.0 0.00 0.00 0.00 77 1027.9
20260502054624 50 180 0.0 1.0 0.00 0.00 0.00 77 1028.0
20260502053625 50 180 0.0 1.0 0.00 0.00 0.00 76 1027.9
20260502052625 50 180 0.0 1.0 0.00 0.00 0.00 76 1027.9
20260502051623 50 247 0.0 0.0 0.00 0.00 0.00 76 1028.1
20260502044626 50 202 0.0 2.0 0.00 0.00 0.00 77 1028.3
20260502042625 49 247 0.0 1.0 0.00 0.00 0.00 77 1028.3
20260502041624 49 202 0.0 1.0 0.00 0.00 0.00 77 1028.5
20260502040624 49 202 0.0 1.0 0.00 0.00 0.00 77 1028.2
20260502035632 49 202 0.0 0.0 0.00 0.00 0.00 77 1028.1
20260502034632 49 202 0.0 2.0 0.00 0.00 0.00 76 1028.2
20260502033732 49 202 0.0 2.0 0.00 0.00 0.00 76 1028.2
20260502032733 49 202 0.0 0.0 0.00 0.00 0.00 76 1028.3
20260502031832 49 202 0.0 1.0 0.00 0.00 0.00 76 1028.4
20260502025834 49 202 0.0 3.0 0.00 0.00 0.00 75 1028.5
20260502024834 49 202 0.0 1.0 0.00 0.00 0.00 74 1028.5
20260502023834 49 202 0.0 2.0 0.00 0.00 0.00 73 1028.5
20260502022832 49 225 0.0 1.0 0.00 0.00 0.00 73 1028.4
20260502021833 49 197 0.0 2.0 0.00 0.00 0.00 72 1028.5
20260502020833 49 202 0.0 0.0 0.00 0.00 0.00 72 1028.5
20260502015833 50 180 0.0 1.0 0.00 0.00 0.00 71 1028.6
20260502014932 50 202 0.0 3.0 0.00 0.00 0.00 71 1028.5
20260502013933 50 202 0.0 1.0 0.00 0.00 0.00 70 1028.4
20260502012932 50 202 0.0 1.0 0.00 0.00 0.00 70 1028.3
20260502011033 50 202 0.0 2.0 0.00 0.00 0.00 70 1028.1
20260502010132 50 202 0.0 0.0 0.00 0.00 0.00 69 1028.1
20260502005134 50 202 0.0 0.0 0.00 0.00 0.00 69 1028.2
20260502004132 50 202 0.0 2.0 0.00 0.00 0.00 68 1028.2
20260502003133 51 202 0.0 1.0 0.00 0.00 0.00 67 1028.1
20260502002231 51 202 0.0 2.0 0.00 0.00 0.00 67 1027.9
20260501235233 52 202 1.0 2.0 0.00 0.00 0.00 65 1027.7
20260501234332 52 202 1.0 3.0 0.00 0.00 0.00 64 1027.6
20260501233333 53 180 0.0 1.0 0.00 0.00 0.00 63 1027.5
20260501232333 53 157 0.0 2.0 0.00 0.00 0.00 62 1027.4
20260501231333 54 175 0.0 2.0 0.00 0.00 0.00 61 1027.4
20260501225431 55 183 0.0 4.0 0.00 0.00 0.00 60 1027.3
20260501224434 55 196 1.0 4.0 0.00 0.00 0.00 57 1027.3
20260501223531 56 169 0.0 1.0 0.00 0.00 0.00 55 1027.2
20260501222532 56 202 0.0 2.0 0.00 0.00 0.00 54 1027.3
20260501221533 57 186 1.0 4.0 0.00 0.00 0.00 52 1027.4
20260501220533 58 215 2.0 4.0 0.00 0.00 0.00 53 1027.3
20260501215532 58 197 0.0 2.0 0.00 0.00 0.00 52 1027.2
20260501214534 58 195 1.0 2.0 0.00 0.00 0.00 49 1027.1
20260501212632 61 217 0.0 2.0 0.00 0.00 0.00 50 1027.0
20260501210633 62 198 1.0 4.0 0.00 0.00 0.00 46 1026.7
20260501205633 63 180 1.0 2.0 0.00 0.00 0.00 43 1026.6
20260501204732 63 180 0.0 2.0 0.00 0.00 0.00 36 1026.6
20260501203732 63 203 2.0 3.0 0.00 0.00 0.00 35 1026.6
20260501202732 63 289 2.0 4.0 0.00 0.00 0.00 35 1026.5
20260501201733 63 283 2.0 4.0 0.00 0.00 0.00 34 1026.4
20260501200832 63 276 1.0 3.0 0.00 0.00 0.00 33 1026.5
20260501195834 64 299 4.0 7.0 0.00 0.00 0.00 34 1026.4
20260501194832 63 199 0.0 3.0 0.00 0.00 0.00 33 1026.6
20260501193834 62 292 2.0 6.0 0.00 0.00 0.00 33 1026.6
20260501192931 63 292 3.0 6.0 0.00 0.00 0.00 33 1026.8
20260501191934 64 315 3.0 4.0 0.00 0.00 0.00 33 1026.8
20260501190034 63 125 0.0 4.0 0.00 0.00 0.00 32 1027.0
20260501185033 63 271 2.0 4.0 0.00 0.00 0.00 33 1027.2
20260501184032 63 270 0.0 1.0 0.00 0.00 0.00 33 1027.3
20260501182132 61 260 1.0 5.0 0.00 0.00 0.00 34 1027.4
20260501180132 62 337 1.0 3.0 0.00 0.00 0.00 34 1027.4
20260501175133 61 314 4.0 6.0 0.00 0.00 0.00 35 1027.6
20260501174232 63 315 3.0 4.0 0.00 0.00 0.00 33 1027.6
20260501173235 62 319 2.0 3.0 0.00 0.00 0.00 35 1027.7
20260501171234 60 261 1.0 3.0 0.00 0.00 0.00 38 1027.9
20260501170331 60 242 1.0 3.0 0.00 0.01 0.00 38 1027.9
20260501165332 58 290 0.0 0.0 0.00 0.01 0.00 40 1028.0
20260501164335 58 292 2.0 5.0 0.00 0.01 0.00 40 1028.1